Content
SEND FEEDBACK

Daily
Averages
Monthly
Summary
Canada

SUDBURY, ONTARIO


Home > North America > Canada > Ontario
Elevation: 1140 feet     Latitude: 46 37N     Longitude: 080 48W

WEATHER
 
SELECT A DAY
Number of Records: 184,170;   Date Range: 1/1/95 - 9/8/14
 
SHARE

PRINT THIS DATA

[ ← Previous Day ]
WEATHER ALMANAC - JANUARY 1, 2013
[ Next Day → ]
[ °C ]   °F
Weather ElementAverageHighLow
Temperature4.7 °F17.6 °F (8:00 pm)-7.6 °F (7:00 am)
Dewpoint-0.8 °F10.4 °F (7:00 pm)-9.4 °F (7:00 am)
Humidity76.8 %92 % (6:00 am)48 % (1:00 pm)
Barometer28.92 in30.08 in (7:00 am) (7:00 pm)
Wind Speed8.7 mph15 mph (9:00 pm)
Wind Gust19.6 mph (8:00 pm)
Weather ElementAverage
Visibility15.5 mi
Wind DirectionWSW (262.9 °)

Weather ElementTotal
Precipitation---
Heating Degree Days60 (Base 65)
Averaged from 28 records on January 1, 2013
WEATHER CONDITIONS BREAKOUT
WIND DIRECTION BREAKOUT
WEATHER BY HOUR - JANUARY 1, 2013
[ °C ]   °F
Local TimeTemperatureDewpointHumidityBarometerVisibilityWind DirectionWind SpeedGust SpeedPrecipitationEventsConditions
1:00 AM3.0 °F-3.0 °F66 %29.97 in15.0 miNW (320°)6.9 mphPartly Cloudy
1:00 AM3.2 °F-2.2 °F78 %29.97 in15.0 miNW (320°)6.9 mphMostly Cloudy
2:00 AM1.4 °F-4.0 °F78 %29.98 in15.0 miNorth (350°)8.1 mphScattered Clouds
3:00 AM-0.4 °F-5.8 °F78 %29.99 in15.0 miNNW (330°)10.4 mphPartly Cloudy
4:00 AM-2.2 °F-5.8 °F85 %30.01 in15.0 miNNW (330°)8.1 mphPartly Cloudy
5:00 AM-4.0 °F-7.6 °F85 %30.03 in15.0 miNNW (330°)9.2 mphClear
6:00 AM-5.8 °F-7.6 °F92 %30.04 in15.0 miNW (310°)5.8 mphClear
7:00 AM-7.6 °F-9.4 °F92 %30.08 in15.0 miWest (280°)8.1 mphClear
7:00 AM-7.0 °F-9.0 °F86 %30.08 in15.0 miWest (280°)5.8 mph
8:00 AM-7.6 °F-9.4 °F92 %30.07 in20.0 miWest (280°)8.1 mphPartly Cloudy
9:00 AM-7.6 °F-9.4 °F92 %30.08 in20.0 miWNW (290°)5.8 mphPartly Cloudy
10:00 AM-4.0 °F-9.4 °F78 %30.08 in20.0 miWest (270°)9.2 mphPartly Cloudy
11:00 AM-0.4 °F-7.6 °F72 %30.08 in20.0 miWest (260°)8.1 mphPartly Cloudy
12:00 PM3.2 °F-5.8 °F66 %30.06 in20.0 miWSW (240°)9.2 mphScattered Clouds
1:00 PM6.8 °F-4.0 °F61 %30.01 in20.0 miSW (220°)6.9 mphPartly Cloudy
1:00 PM6.0 °F-4.0 °F48 %30.01 in19.0 miESE (120°)1.2 mph
2:00 PM8.6 °F-0.4 °F67 %29.98 in20.0 miWSW (250°)8.1 mphMostly Cloudy
3:00 PM10.4 °F3.2 °F73 %29.96 in15.0 miSW (220°)6.9 mphOvercast
3:09 PM0.0 °F0.0 °F6.0 miSSW (200°)11.5 mph
4:00 PM12.2 °F1.4 °F62 %29.95 in5.0 miWSW (240°)10.4 mphSnowLight Snow
5:00 PM12.2 °F6.8 °F79 %29.96 in10.0 miSW (230°)8.1 mphSnowLight Snow
6:00 PM12.2 °F8.6 °F85 %29.94 in15.0 miSW (220°)10.4 mphSnowLight Snow
7:00 PM15.0 °F10.0 °F74 %29.94 in15.0 miSW (230°)11.5 mphSnowLight Snow
7:00 PM14.0 °F10.4 °F86 %29.94 in15.0 miSW (230°)11.5 mphSnowLight Snow
8:00 PM17.6 °F10.4 °F73 %29.92 in15.0 miWSW (240°)11.5 mph19.6 mphSnowLight Snow
9:00 PM17.6 °F10.4 °F73 %29.91 in15.0 miWSW (250°)15.0 mphSnowLight Snow
10:00 PM17.6 °F10.4 °F73 %29.89 in15.0 miWest (260°)10.4 mph17.3 mphSnowLight Snow
11:00 PM15.8 °F10.4 °F79 %29.89 in15.0 miWest (260°)10.4 mphSnowLight Snow
Hourly data recorded from CYSB, located miles away from Sudbury, Ontario







STORIES FROM OUR PARTNERS